GW0260 Weather Reports


time (UTC)temp
C
wind
direction
speed
KPH
gust
KPH
rain 1hr
cm
rain 24hr
cm
rain mn
cm
humidity
%
barometer
mb
20260505003905 16 287 8.0 12.9 0.00 0.00 0.00 55
20260505003402 16 219 6.4 20.9 0.00 0.00 0.00 54
20260505002858 16 272 6.4 14.5 0.00 0.00 0.00 55
20260505002354 16 274 8.0 12.9 0.00 0.00 0.00 54
20260505001853 16 297 3.2 9.7 0.00 0.00 0.00 56
20260505001350 16 282 3.2 9.7 0.00 0.00 0.00 54
20260505000847 16 214 11.3 14.5 0.00 0.00 0.00 53
20260505000345 16 207 4.8 17.7 0.00 0.00 0.00 53
20260504235841 16 289 3.2 14.5 0.00 0.00 0.00 54
20260504235338 16 155 1.6 4.8 0.00 0.00 0.00 54
20260504234835 16 274 8.0 14.5 0.00 0.00 0.00 52
20260504234333 16 279 4.8 9.7 0.00 0.00 0.00 52
20260504233829 17 15 4.8 8.0 0.00 0.00 0.00 52
20260504233324 17 287 4.8 11.3 0.00 0.00 0.00 52
20260504232822 17 191 16.1 22.5 0.00 0.00 0.00 51
20260504232319 17 285 1.6 8.0 0.00 0.00 0.00 50
20260504231815 17 273 6.4 16.1 0.00 0.00 0.00 49
20260504231312 18 244 3.2 9.7 0.00 0.00 0.00 50
20260504230808 18 238 8.0 22.5 0.00 0.00 0.00 47
20260504230306 18 213 14.5 17.7 0.00 0.00 0.00 46
20260504225805 18 267 6.4 20.9 0.00 0.00 0.00 46
20260504225301 18 257 11.3 14.5 0.00 0.00 0.00 47
20260504224758 18 249 9.7 14.5 0.00 0.00 0.00 45
20260504224255 19 300 4.8 14.5 0.00 0.00 0.00 45
20260504223751 19 289 6.4 24.1 0.00 0.00 0.00 44
20260504223247 19 233 6.4 12.9 0.00 0.00 0.00 44
20260504222744 19 226 6.4 16.1 0.00 0.00 0.00 44
20260504222241 19 209 11.3 16.1 0.00 0.00 0.00 44
20260504221739 19 49 4.8 16.1 0.00 0.00 0.00 44
20260504221236 19 185 11.3 16.1 0.00 0.00 0.00 42
20260504220732 20 211 9.7 12.9 0.00 0.00 0.00 41
20260504220229 20 269 8.0 9.7 0.00 0.00 0.00 40
20260504215727 21 262 4.8 11.3 0.00 0.00 0.00 39
20260504215223 21 219 8.0 12.9 0.00 0.00 0.00 36
20260504214719 21 275 6.4 9.7 0.00 0.00 0.00 37
20260504214216 21 307 11.3 16.1 0.00 0.00 0.00 36
20260504213712 21 241 9.7 16.1 0.00 0.00 0.00 36
20260504213209 21 238 8.0 12.9 0.00 0.00 0.00 36
20260504212706 21 196 6.4 14.5 0.00 0.00 0.00 37
20260504212203 21 234 8.0 16.1 0.00 0.00 0.00 36
20260504211700 21 266 8.0 14.5 0.00 0.00 0.00 36
20260504211156 21 294 9.7 12.9 0.00 0.00 0.00 37
20260504210654 21 266 8.0 14.5 0.00 0.00 0.00 37
20260504210150 21 154 16.1 20.9 0.00 0.00 0.00 36
20260504205648 21 272 4.8 9.7 0.00 0.00 0.00 38
20260504205144 21 9 8.0 25.7 0.00 0.00 0.00 35
20260504204643 22 306 11.3 16.1 0.00 0.00 0.00 36
20260504204142 21 278 6.4 14.5 0.00 0.00 0.00 38
20260504203640 21 278 9.7 25.7 0.00 0.00 0.00 36
20260504203137 22 220 8.0 16.1 0.00 0.00 0.00 36
20260504202637 21 293 8.0 12.9 0.00 0.00 0.00 37
20260504202134 22 315 3.2 9.7 0.00 0.00 0.00 36
20260504201631 21 267 6.4 14.5 0.00 0.00 0.00 35
20260504201129 22 272 11.3 14.5 0.00 0.00 0.00 35
20260504200626 22 296 8.0 12.9 0.00 0.00 0.00 34
20260504200123 22 197 12.9 16.1 0.00 0.00 0.00 32
20260504195618 21 315 8.0 20.9 0.00 0.00 0.00 36
20260504195115 21 265 12.9 29.0 0.00 0.00 0.00 35
20260504194612 21 215 6.4 12.9 0.00 0.00 0.00 36
20260504194107 21 236 12.9 17.7 0.00 0.00 0.00 36
20260504193604 21 230 11.3 12.9 0.00 0.00 0.00 35
20260504193103 21 293 6.4 12.9 0.00 0.00 0.00 37
20260504192600 21 265 11.3 20.9 0.00 0.00 0.00 34
20260504192058 22 254 11.3 16.1 0.00 0.00 0.00 33
20260504191556 21 255 6.4 16.1 0.00 0.00 0.00 38
20260504191052 21 318 9.7 14.5 0.00 0.00 0.00 37
20260504190548 21 191 9.7 16.1 0.00 0.00 0.00 35
20260504190044 21 264 9.7 14.5 0.00 0.00 0.00 32
20260504185542 21 287 16.1 20.9 0.00 0.00 0.00 34
20260504185038 21 283 8.0 9.7 0.00 0.00 0.00 37
20260504184534 21 277 8.0 16.1 0.00 0.00 0.00 35
20260504184029 21 137 9.7 16.1 0.00 0.00 0.00 34
20260504183527 21 290 9.7 14.5 0.00 0.00 0.00 37
20260504183025 21 247 8.0 16.1 0.00 0.00 0.00 33
20260504182521 21 276 12.9 16.1 0.00 0.00 0.00 34
20260504182019 21 246 9.7 22.5 0.00 0.00 0.00 35
20260504181515 21 260 8.0 12.9 0.00 0.00 0.00 36
20260504181014 21 254 12.9 20.9 0.00 0.00 0.00 35
20260504180513 20 254 9.7 22.5 0.00 0.00 0.00 36
20260504180011 20 243 9.7 20.9 0.00 0.00 0.00 35
20260504175508 21 265 14.5 17.7 0.00 0.00 0.00 35
20260504175005 21 223 8.0 9.7 0.00 0.00 0.00 38
20260504174503 20 249 16.1 22.5 0.00 0.00 0.00 35
20260504173959 20 272 8.0 25.7 0.00 0.00 0.00 35
20260504173456 20 229 17.7 33.8 0.00 0.00 0.00 34
20260504172954 20 256 11.3 17.7 0.00 0.00 0.00 37
20260504172449 20 221 9.7 24.1 0.00 0.00 0.00 39
20260504171946 20 285 6.4 14.5 0.00 0.00 0.00 38
20260504171443 20 297 14.5 27.4 0.00 0.00 0.00 35
20260504170940 20 290 6.4 12.9 0.00 0.00 0.00 39
20260504170436 20 254 11.3 17.7 0.00 0.00 0.00 38
20260504160356 18 266 9.7 14.5 0.00 0.00 0.00 40
20260504150820 18 225 9.7 17.7 0.00 0.00 0.00 42
20260504150316 18 230 9.7 20.9 0.00 0.00 0.00 42
20260504141247 17 270 9.7 14.5 0.00 0.00 0.00 45
20260504140743 17 261 9.7 16.1 0.00 0.00 0.00 46
20260504140239 17 307 9.7 11.3 0.00 0.00 0.00 46
20260504130708 15 275 8.0 11.3 0.00 0.00 0.00 50
20260504130203 15 260 8.0 11.3 0.00 0.00 0.00 55
20260504120127 10 254 4.8 12.9 0.00 0.00 0.00 58
20260504110555 10 246 1.6 9.7 0.00 0.00 0.00 58
20260504100517 7 284 3.2 4.8 0.00 0.00 0.00 66
20260504081910 7 263 1.6 3.2 0.00 0.00 0.00 71
20260504081406 7 272 0.0 3.2 0.00 0.00 0.00 70
20260504080903 7 262 1.6 1.6 0.00 0.00 0.00 70
20260504080400 7 261 0.0 1.6 0.00 0.00 0.00 69
20260504070327 7 275 0.0 0.0 0.00 0.00 0.00 68
20260504060247 8 280 1.6 3.2 0.00 0.00 0.00 61
20260504050715 7 250 3.2 4.8 0.00 0.00 0.00 62
20260504050212 7 279 1.6 4.8 0.00 0.00 0.00 62
20260504045710 6 267 1.6 3.2 0.00 0.00 0.00 69
20260504045210 6 253 3.2 3.2 0.00 0.00 0.00 74
20260504044708 6 260 3.2 3.2 0.00 0.00 0.00 76
20260504044205 6 278 3.2 4.8 0.00 0.00 0.00 72
20260504043701 6 286 3.2 3.2 0.00 0.00 0.00 74
20260504043158 6 284 1.6 3.2 0.00 0.00 0.00 67
20260504042656 6 272 3.2 3.2 0.00 0.00 0.00 67
20260504042152 6 268 3.2 9.7 0.00 0.00 0.00 63
20260504041648 6 274 3.2 3.2 0.00 0.00 0.00 65
20260504041144 6 284 3.2 4.8 0.00 0.00 0.00 64
20260504040642 6 283 4.8 4.8 0.00 0.00 0.00 66
20260504040138 5 284 1.6 4.8 0.00 0.00 0.00 69
20260504035635 5 267 1.6 3.2 0.00 0.00 0.00 69
20260504035132 4 267 1.6 3.2 0.00 0.00 0.00 75
20260504034630 3 271 1.6 3.2 0.00 0.00 0.00 82
20260504034126 3 272 1.6 1.6 0.00 0.00 0.00 85
20260504033624 3 293 0.0 1.6 0.00 0.00 0.00 85
20260504033121 3 278 0.0 1.6 0.00 0.00 0.00 84
20260504032618 3 274 0.0 1.6 0.00 0.00 0.00 84
20260504032115 3 274 0.0 0.0 0.00 0.00 0.00 83
20260504031612 3 274 0.0 0.0 0.00 0.00 0.00 83
20260504031108 3 269 0.0 1.6 0.00 0.00 0.00 83
20260504030605 3 267 0.0 1.6 0.00 0.00 0.00 82
20260504025559 3 274 1.6 3.2 0.00 0.00 0.00 82
20260504025055 3 263 0.0 1.6 0.00 0.00 0.00 85
20260504024553 3 265 0.0 0.0 0.00 0.00 0.00 85
20260504024049 3 265 0.0 0.0 0.00 0.00 0.00 84
20260504023546 3 265 0.0 1.6 0.00 0.00 0.00 84
20260504023042 3 265 0.0 0.0 0.00 0.00 0.00 83
20260504022538 3 265 0.0 0.0 0.00 0.00 0.00 82
20260504022035 4 265 0.0 0.0 0.00 0.00 0.00 81
20260504021532 4 265 0.0 0.0 0.00 0.00 0.00 80
20260504021029 4 263 0.0 0.0 0.00 0.00 0.00 79
20260504020526 5 260 0.0 1.6 0.00 0.00 0.00 79
20260504020022 5 260 0.0 1.6 0.00 0.00 0.00 77
20260504015519 5 266 0.0 0.0 0.00 0.00 0.00 75
20260504015015 5 265 0.0 1.6 0.00 0.00 0.00 74
20260504014511 5 274 1.6 1.6 0.00 0.00 0.00 76
20260504014008 5 275 0.0 0.0 0.00 0.00 0.00 77
20260504013506 5 275 0.0 0.0 0.00 0.00 0.00 76
20260504013002 5 275 0.0 0.0 0.00 0.00 0.00 76
20260504012500 5 275 0.0 0.0 0.00 0.00 0.00 75
20260504011958 5 275 0.0 1.6 0.00 0.00 0.00 75
20260504011454 5 275 0.0 1.6 0.00 0.00 0.00 74
20260504010950 6 275 0.0 0.0 0.00 0.00 0.00 71
20260504010446 6 275 0.0 0.0 0.00 0.00 0.00 67
20260504005942 7 275 0.0 0.0 0.00 0.00 0.00 63
20260504005439 7 274 0.0 1.6 0.00 0.00 0.00 65
20260504004937 7 273 1.6 3.2 0.00 0.00 0.00 64
20260504004434 7 272 1.6 1.6 0.00 0.00 0.00 61
20260504003931 8 272 0.0 1.6 0.00 0.00 0.00 58